| time (UTC) | temp F | wind direction | speed MPH | gust MPH | rain 1hr in | rain 24hr in | rain mn in | humidity % | barometer mb |
| 20260906114528 | 72 | 332 | 0.0 | 3.0 | 0.00 | 0.00 | 0.00 | 37 | 1016.0 |
| 20260906113043 | 72 | 244 | 0.0 | 1.0 | 0.00 | 0.00 | 0.00 | 34 | 1015.6 |
| 20260906111554 | 72 | 348 | 0.0 | 0.0 | 0.00 | 0.00 | 0.00 | 41 | 1015.3 |
| 20260906110016 | 72 | 6 | 0.0 | 0.0 | 0.00 | 0.00 | 0.00 | 46 | 1014.9 |
| 20260906104536 | 72 | 6 | 0.0 | 0.0 | 0.00 | 0.00 | 0.00 | 50 | 1014.9 |
| 20260906103053 | 73 | 347 | 0.0 | 1.0 | 0.00 | 0.00 | 0.00 | 53 | 1014.8 |
| 20260906101513 | 73 | 347 | 0.0 | 1.0 | 0.00 | 0.00 | 0.00 | 54 | 1014.5 |
| 20260906100037 | 73 | 347 | 0.0 | 3.0 | 0.00 | 0.00 | 0.00 | 57 | 1014.4 |
| 20260906094605 | 74 | 346 | 0.0 | 0.0 | 0.00 | 0.00 | 0.00 | 60 | 1014.2 |
| 20260906093024 | 74 | 34 | 0.0 | 0.0 | 0.00 | 0.00 | 0.00 | 63 | 1014.1 |
| 20260906091550 | 74 | 34 | 0.0 | 0.0 | 0.00 | 0.00 | 0.00 | 64 | 1014.1 |
| 20260906090020 | 75 | 76 | 0.0 | 0.0 | 0.00 | 0.00 | 0.00 | 65 | 1014.0 |
| 20260906084547 | 75 | 342 | 0.0 | 0.0 | 0.00 | 0.00 | 0.00 | 65 | 1014.0 |
| 20260906083021 | 75 | 165 | 0.0 | 2.0 | 0.00 | 0.00 | 0.00 | 65 | 1014.0 |
| 20260906081554 | 75 | 295 | 0.0 | 1.0 | 0.00 | 0.00 | 0.00 | 63 | 1014.0 |
| 20260906080019 | 76 | 295 | 0.0 | 0.0 | 0.00 | 0.00 | 0.00 | 66 | 1013.8 |
| 20260906074542 | 76 | 295 | 0.0 | 0.0 | 0.00 | 0.00 | 0.00 | 69 | 1013.8 |
| 20260906073100 | 77 | 294 | 0.0 | 0.0 | 0.00 | 0.00 | 0.00 | 72 | 1013.7 |
| 20260906073002 | 77 | 295 | 0.0 | 0.0 | 0.00 | 0.00 | 0.00 | 72 | 1013.7 |
| 20260906071526 | 77 | 294 | 0.0 | 1.0 | 0.00 | 0.00 | 0.00 | 72 | 1013.8 |
| 20260906070040 | 78 | 297 | 0.0 | 0.0 | 0.00 | 0.00 | 0.00 | 74 | 1014.0 |
| 20260906064508 | 78 | 297 | 0.0 | 0.0 | 0.00 | 0.00 | 0.00 | 74 | 1014.1 |
| 20260906063026 | 79 | 297 | 0.0 | 0.0 | 0.00 | 0.00 | 0.00 | 75 | 1014.2 |
| 20260906061555 | 80 | 305 | 0.0 | 3.0 | 0.00 | 0.00 | 0.00 | 75 | 1014.1 |
| 20260906060023 | 80 | 321 | 0.0 | 1.0 | 0.00 | 0.00 | 0.00 | 75 | 1014.4 |
| 20260906054607 | 80 | 7 | 0.0 | 2.0 | 0.00 | 0.00 | 0.00 | 75 | 1014.3 |
| 20260906053025 | 81 | 153 | 0.0 | 3.0 | 0.00 | 0.00 | 0.00 | 75 | 1014.2 |
| 20260906051559 | 81 | 122 | 0.0 | 3.0 | 0.00 | 0.00 | 0.00 | 75 | 1014.2 |
| 20260906050022 | 81 | 326 | 0.0 | 2.0 | 0.00 | 0.00 | 0.00 | 74 | 1014.0 |
| 20260906044526 | 80 | 143 | 0.0 | 1.0 | 0.00 | 0.00 | 0.00 | 74 | 1014.0 |
| 20260906043043 | 79 | 237 | 0.0 | 0.0 | 0.00 | 0.00 | 0.00 | 73 | 1013.8 |
| 20260906041549 | 79 | 63 | 0.0 | 0.0 | 0.00 | 0.00 | 0.00 | 74 | 1013.8 |
| 20260906040001 | 79 | 63 | 0.0 | 0.0 | 0.00 | 0.00 | 0.00 | 75 | 1013.7 |
| 20260906034603 | 79 | 63 | 0.0 | 0.0 | 0.00 | 0.00 | 0.00 | 75 | 1013.5 |
| 20260906033007 | 79 | 63 | 0.0 | 0.0 | 0.00 | 0.00 | 0.00 | 75 | 1013.5 |
| 20260906031524 | 79 | 63 | 0.0 | 0.0 | 0.00 | 0.00 | 0.00 | 76 | 1013.2 |
| 20260906030031 | 79 | 63 | 0.0 | 0.0 | 0.00 | 0.00 | 0.00 | 76 | 1013.1 |
| 20260906024555 | 79 | 63 | 0.0 | 0.0 | 0.00 | 0.00 | 0.00 | 76 | 1013.1 |
| 20260906023028 | 80 | 63 | 0.0 | 0.0 | 0.00 | 0.00 | 0.00 | 76 | 1012.9 |
| 20260906021537 | 80 | 63 | 0.0 | 0.0 | 0.00 | 0.00 | 0.00 | 75 | 1012.7 |
| 20260906020053 | 81 | 63 | 0.0 | 0.0 | 0.00 | 0.00 | 0.00 | 75 | 1012.6 |
| 20260906014508 | 82 | 63 | 0.0 | 0.0 | 0.00 | 0.00 | 0.00 | 75 | 1012.4 |
| 20260906013028 | 82 | 63 | 0.0 | 0.0 | 0.00 | 0.00 | 0.00 | 73 | 1012.3 |
| 20260906011534 | 83 | 63 | 0.0 | 0.0 | 0.00 | 0.00 | 0.00 | 72 | 1012.2 |
| 20260906010009 | 84 | 63 | 0.0 | 0.0 | 0.00 | 0.00 | 0.00 | 71 | 1012.1 |
| 20260906004553 | 85 | 63 | 0.0 | 2.0 | 0.00 | 0.00 | 0.00 | 68 | 1012.0 |
| 20260906003008 | 86 | 205 | 0.0 | 0.0 | 0.00 | 0.00 | 0.00 | 66 | 1011.8 |
| 20260906001554 | 87 | 205 | 0.0 | 0.0 | 0.00 | 0.00 | 0.00 | 65 | 1011.9 |
| 20260906000048 | 89 | 205 | 0.0 | 0.0 | 0.00 | 0.00 | 0.00 | 60 | 1012.1 |
| 20260905234517 | 91 | 205 | 0.0 | 0.0 | 0.00 | 0.00 | 0.00 | 57 | 1012.0 |
| 20260905233033 | 92 | 205 | 0.0 | 0.0 | 0.00 | 0.00 | 0.00 | 56 | 1012.1 |
| 20260905231513 | 94 | 205 | 0.0 | 0.0 | 0.00 | 0.00 | 0.00 | 51 | 1011.9 |
| 20260905230035 | 95 | 205 | 0.0 | 1.0 | 0.00 | 0.00 | 0.00 | 48 | 1011.8 |
| 20260905224558 | 96 | 217 | 0.0 | 1.0 | 0.00 | 0.00 | 0.00 | 48 | 1011.7 |
| 20260905223032 | 97 | 177 | 0.0 | 1.0 | 0.00 | 0.00 | 0.00 | 42 | 1011.5 |
| 20260905221552 | 100 | 18 | 0.0 | 1.0 | 0.00 | 0.00 | 0.00 | 37 | 1011.4 |
| 20260905220028 | 102 | 289 | 0.0 | 3.0 | 0.00 | 0.00 | 0.00 | 35 | 1011.5 |
| 20260905214544 | 103 | 192 | 0.0 | 2.0 | 0.00 | 0.00 | 0.00 | 34 | 1011.4 |
| 20260905213006 | 102 | 205 | 0.0 | 2.0 | 0.00 | 0.00 | 0.00 | 37 | 1011.5 |
| 20260905211526 | 102 | 205 | 0.0 | 4.0 | 0.00 | 0.00 | 0.00 | 34 | 1011.7 |
| 20260905210106 | 101 | 293 | 0.0 | 5.0 | 0.00 | 0.00 | 0.00 | 36 | 1011.8 |
| 20260905204513 | 101 | 319 | 0.0 | 2.0 | 0.00 | 0.00 | 0.00 | 36 | 1012.0 |
| 20260905203032 | 102 | 208 | 0.0 | 3.0 | 0.00 | 0.00 | 0.00 | 36 | 1012.1 |
| 20260905201550 | 103 | 346 | 0.0 | 3.0 | 0.00 | 0.00 | 0.00 | 38 | 1012.2 |
| 20260905200004 | 102 | 186 | 0.0 | 7.0 | 0.00 | 0.00 | 0.00 | 37 | 1012.4 |
| 20260905194510 | 101 | 279 | 0.0 | 4.0 | 0.00 | 0.00 | 0.00 | 36 | 1012.5 |
| 20260905193037 | 101 | 212 | 0.0 | 4.0 | 0.00 | 0.00 | 0.00 | 38 | 1012.7 |
| 20260905191550 | 101 | 304 | 0.0 | 2.0 | 0.00 | 0.00 | 0.00 | 41 | 1012.9 |
| 20260905190025 | 100 | 179 | 0.0 | 4.0 | 0.00 | 0.00 | 0.00 | 40 | 1013.2 |
| 20260905184551 | 100 | 321 | 0.0 | 1.0 | 0.00 | 0.00 | 0.00 | 43 | 1013.5 |
| 20260905183016 | 99 | 349 | 0.0 | 2.0 | 0.00 | 0.00 | 0.00 | 44 | 1013.6 |
| 20260905181552 | 99 | 63 | 0.0 | 4.0 | 0.00 | 0.00 | 0.00 | 44 | 1013.7 |
| 20260905180018 | 99 | 280 | 0.0 | 1.0 | 0.00 | 0.00 | 0.00 | 42 | 1013.7 |
| 20260905174551 | 100 | 358 | 0.0 | 2.0 | 0.00 | 0.00 | 0.00 | 41 | 1013.7 |
| 20260905173026 | 100 | 19 | 0.0 | 2.0 | 0.00 | 0.00 | 0.00 | 40 | 1013.7 |
| 20260905171554 | 100 | 212 | 0.0 | 3.0 | 0.00 | 0.00 | 0.00 | 40 | 1014.0 |
| 20260905170021 | 99 | 184 | 0.0 | 1.0 | 0.00 | 0.00 | 0.00 | 43 | 1014.3 |
| 20260905164551 | 99 | 184 | 0.0 | 1.0 | 0.00 | 0.00 | 0.00 | 43 | 1014.5 |
| 20260905163013 | 98 | 338 | 0.0 | 0.0 | 0.00 | 0.00 | 0.00 | 45 | 1014.5 |
| 20260905161538 | 97 | 207 | 0.0 | 1.0 | 0.00 | 0.00 | 0.00 | 47 | 1014.7 |
| 20260905160010 | 97 | 205 | 0.0 | 3.0 | 0.00 | 0.00 | 0.00 | 47 | 1014.8 |
| 20260905154517 | 96 | 198 | 0.0 | 1.0 | 0.00 | 0.00 | 0.00 | 49 | 1014.8 |
| 20260905153040 | 95 | 251 | 0.0 | 1.0 | 0.00 | 0.00 | 0.00 | 51 | 1014.8 |
| 20260905151617 | 94 | 211 | 0.0 | 1.0 | 0.00 | 0.00 | 0.00 | 50 | 1014.8 |
| 20260905150020 | 92 | 245 | 0.0 | 1.0 | 0.00 | 0.00 | 0.00 | 59 | 1014.8 |
| 20260905144539 | 89 | 191 | 0.0 | 1.0 | 0.00 | 0.00 | 0.00 | 62 | 1014.8 |
| 20260905143007 | 86 | 164 | 0.0 | 2.0 | 0.00 | 0.00 | 0.00 | 67 | 1014.9 |
| 20260905141516 | 84 | 262 | 0.0 | 0.0 | 0.00 | 0.00 | 0.00 | 73 | 1014.9 |
| 20260905140027 | 82 | 262 | 0.0 | 0.0 | 0.00 | 0.00 | 0.00 | 74 | 1015.0 |
| 20260905134538 | 80 | 261 | 0.0 | 1.0 | 0.00 | 0.00 | 0.00 | 72 | 1015.2 |
| 20260905124527 | 75 | 127 | 0.0 | 0.0 | 0.00 | 0.00 | 0.00 | 37 | 1014.8 |
| 20260905123110 | 75 | 127 | 0.0 | 0.0 | 0.00 | 0.00 | 0.00 | 23 | 1014.8 |
| 20260905121523 | 74 | 127 | 0.0 | 0.0 | 0.00 | 0.00 | 0.00 | 20 | 1014.6 |
| 20260905120047 | 73 | 127 | 0.0 | 0.0 | 0.00 | 0.00 | 0.00 | 24 | 1014.6 |